PAKSAT-1R

Last updated on Sat Aug 29 2026 00:03:01 GMT+0000 (Coordinated Universal Time)

1 37779U 11042A 26240.68303872 -.00000098 00000+0 00000+0 0 9998 2 37779 0.8684 83.5394 0000230 127.9795 18.5327 0.99375933 55204
UTC large
Height (km)
Speed (km/s)
/
Latitude / Longitude
Inclination (degrees)
Orbital Period (minutes)
Azimuth
Elevation
Range (km)
Doppler Factor

Next 0 passes for location: London (51.5072 / 0.1276)

No passes found over London.
PAKSAT-1R